Location: �perlecques
(50.8057°N, 2.1521°E)
Time: 01:13:28
(UTC+00:00)

Vanguard 1 Rocket - Pass Details

Date: 09 August 2021
Orbit: 650 x 4226 km, 34.3° (Epoch: 25 September)

Event Time Altitude Azimuth Distance (km) Brightness Sun altitude
Rises 04:25:14 0° 180° (S) 8,227 12.0 -1.5°
Reaches altitude 10° 04:34:58 10° 162° (SSE) 7,416 12.0 -0.1°
Maximum altitude 04:47:15 16° 134° (SE) 6,738 12.2 1.6°
Drops below altitude 10° 04:58:20 10° 105° (ESE) 6,722 12.8 3.3°
Sets 05:05:59 0° 87° (E) 7,149 13.8 4.4°
